Regional Weather Roundup
Issued by NWS Cleveland, OH

Home | Current Version | Previous Version | Text Only | Print | Product List | Glossary Off
Versions: 1 2 3 4 5 6 7 8 9 10 11 12 13 14 15 16 17 18 19 20 21 22 23 24 25 26 27 28 29 30 31 32 33 34 35 36 37 38 39 40 41 42 43 44 45 46 47 48 49 50

225
ASUS41 KCLE 242000
RWRCLE
OHIO REGIONAL WEATHER ROUNDUP
NATIONAL WEATHER SERVICE WILMINGTON, OH
400 PM EDT SAT JUN 24 2017

NOTE: "FAIR" INDICATES FEW OR NO CLOUDS BELOW 12,000 FEET WITH NO
SIGNIFICANT WEATHER AND/OR OBSTRUCTIONS TO VISIBILITY.

OHZ001>008-015>018-024>027-034-035-043-044-242100-
   NORTHWEST OHIO

CITY           SKY/WX    TMP DP  RH WIND       PRES   REMARKS
DEFIANCE       PTSUNNY   74  57  55 NW12      29.94S
FINDLAY        FAIR      79  54  41 W20G29    29.93F
TOLEDO EXPRESS PTSUNNY   74  54  49 W21       29.92R
TOLEDO EXEC    PTSUNNY   79  55  43 W22G29    29.92S
LIMA           FAIR      76  57  51 W18       29.96F
$$

OHZ009>014-019>023-028>033-038-089-242100-
   NORTHEAST OHIO

CITY           SKY/WX    TMP DP  RH WIND       PRES   REMARKS
CLE-HOPKINS    FAIR      80  56  43 W14       29.93S
CLE-LAKEFRONT  FAIR      75  61  61 W10       29.91R
CUY CO. ARPT   MOSUNNY   77  55  47 NW18G25   29.92S
LORAIN-ELYRIA  FAIR      76  52  43 NW10G20   29.92S
ASHTABULA      FAIR      74  51  44 W17G25    29.92R
AKRON-CANTON   FAIR      79  53  40 W12G23    29.93S
WOOSTER        NOT AVBL
MANSFIELD      PTSUNNY   73  55  53 W13G18    29.96S
YOUNGSTOWN     PTSUNNY   77  54  44 W13G22    29.91R
$$

OHZ042-051>053-060>062-070>072-077>081-242100-
  SOUTHWEST OHIO

CITY           SKY/WX    TMP DP  RH WIND       PRES   REMARKS
CINC-COVINGTON PTSUNNY   78  57  48 W17G23    30.02R
CINC-LUNKEN    PTSUNNY   79  58  48 NW8G21    30.00S
HAMILTON       FAIR      76  58  53 W9        30.01S
DAYTON         NOT AVBL
WRIGHT-PAT AFB PTSUNNY   77  56  47 W12       29.98S
DAYTON GENERAL FAIR      77  55  46 W9G18     30.00S
WILMINGTON     PTSUNNY   77  58  51 W16G23    30.00S
$$

OHZ036-037-039>041-045>050-054>059-063>069-073>076-082>088-242100-
  CENTRAL AND SOUTHEAST OHIO

CITY           SKY/WX    TMP DP  RH WIND       PRES   REMARKS
COLUMBUS       FAIR      80  56  43 W16       29.96S
OSU AIRPORT    FAIR      78  59  51 W12       29.97S
BOLTON FIELD   MOSUNNY   77  57  50 W13G21    29.98F
RICKENBACK AFB NOT AVBL
NEWARK         FAIR      79  53  40 W15       29.96S
MARION         PTSUNNY   75  54  47 NW12      29.97S
LANCASTER      FAIR      77  59  53 W12G18    29.98S
ZANESVILLE     FAIR      78  58  49 W13       29.96S
NEW PHILLY     PTSUNNY   78  57  48 NW10      29.95R
$$




USA.gov is the U.S. government's official web portal to all federal, state and local government web resources and services.